Location: Asheville, NC
(35.6000°N, 82.5500°W)
Time: 14:39:25
(UTC-04:00)

NUDT-PHONESAT - Pass Details

Date: 12 January 2018
Orbit: 494 x 511 km, 97.4° (Epoch: 20 April)

Event Time Altitude Azimuth Distance (km) Brightness Sun altitude
Rises 18:30:42 0° 183° (S) 2,608 ? -10.8°
Reaches altitude 10° 18:32:52 10° 191° (S) 1,727 ? -11.2°
Maximum altitude 18:36:22 39° 261° (W) 776 ? -11.9°
Drops below altitude 10° 18:39:55 10° 332° (NNW) 1,738 ? -12.6°
Sets 18:42:06 0° 340° (NNW) 2,627 ? -13.0°
